EW3163 Weather Reports


Display with metric or nautical units.
time (UTC)temp
F
wind
direction
speed
MPH
gust
MPH
rain 1hr
in
rain 24hr
in
rain mn
in
humidity
%
barometer
mb
20260508080014 54 143 0.0 0.0 0.00 0.00 0.00 79 1016.1
20260508074516 53 146 0.0 1.0 0.00 0.00 0.00 80 1015.9
20260508073007 53 195 0.0 0.0 0.00 0.00 0.00 84 1016.0
20260508071503 51 162 0.0 1.0 0.00 0.00 0.00 88 1015.9
20260508064607 49 191 0.0 0.0 0.00 0.00 0.00 92 1015.6
20260508063057 49 184 0.0 1.0 0.00 0.00 0.00 92 1015.5
20260508061601 48 148 0.0 0.0 0.00 0.00 0.00 93 1015.4
20260508060058 47 205 0.0 0.0 0.00 0.00 0.00 94 1015.3
20260508054620 46 205 0.0 0.0 0.00 0.00 0.00 94 1015.2
20260508053052 46 188 0.0 0.0 0.00 0.00 0.00 93 1015.1
20260508051552 46 212 0.0 0.0 0.00 0.00 0.00 93 1015.0
20260508050052 46 174 0.0 0.0 0.00 0.00 0.00 93 1014.8
20260508044548 46 148 0.0 0.0 0.00 0.00 0.00 93 1014.8
20260508043051 46 172 0.0 0.0 0.00 0.00 0.00 93 1014.8
20260508041547 46 163 0.0 0.0 0.00 0.00 0.00 93 1014.7
20260508040054 46 186 0.0 0.0 0.00 0.00 0.00 93 1014.6
20260508034548 46 188 0.0 0.0 0.00 0.00 0.00 93 1014.5
20260508033045 46 190 0.0 0.0 0.00 0.00 0.00 93 1014.4
20260508031552 46 184 0.0 0.0 0.00 0.00 0.00 93 1014.6
20260508030046 46 170 0.0 0.0 0.00 0.00 0.00 92 1014.6
20260508024542 46 155 0.0 0.0 0.00 0.00 0.00 91 1014.5
20260508023039 46 149 0.0 0.0 0.00 0.00 0.00 91 1014.5
20260508021541 47 154 0.0 0.0 0.00 0.00 0.00 90 1014.5
20260508020036 47 145 0.0 0.0 0.00 0.00 0.00 89 1014.5
20260508014534 48 146 0.0 0.0 0.00 0.00 0.00 89 1014.5
20260508013031 48 158 0.0 0.0 0.00 0.00 0.00 88 1014.5
20260508011538 49 175 0.0 0.0 0.00 0.00 0.00 88 1014.6
20260508010032 49 179 0.0 0.0 0.00 0.00 0.00 87 1014.6
20260508004536 49 185 0.0 0.0 0.00 0.00 0.00 86 1014.7
20260508003025 50 187 0.0 0.0 0.00 0.00 0.00 85 1014.7
20260508001527 50 123 0.0 0.0 0.00 0.00 0.00 84 1014.7
20260508000020 50 188 0.0 0.0 0.00 0.00 0.00 83 1014.7
20260507234527 51 191 0.0 1.0 0.00 0.00 0.00 82 1014.6
20260507233024 51 154 0.0 0.0 0.00 0.00 0.00 82 1014.6
20260507231514 51 136 0.0 0.0 0.00 0.00 0.00 81 1014.5
20260507230013 51 190 0.0 1.0 0.00 0.00 0.00 81 1014.5
20260507224518 51 142 0.0 0.0 0.00 0.00 0.00 81 1014.5
20260507223014 51 139 0.0 3.0 0.00 0.00 0.00 80 1014.4
20260507221511 51 187 0.0 0.0 0.00 0.00 0.00 81 1014.5
20260507220010 51 149 0.0 1.0 0.00 0.00 0.00 81 1014.5
20260507214518 51 137 0.0 0.0 0.00 0.00 0.00 82 1014.6
20260507213008 51 137 0.0 0.0 0.00 0.00 0.00 81 1014.5
20260507211508 51 184 0.0 1.0 0.00 0.00 0.00 79 1014.5
20260507210008 51 251 0.0 1.0 0.00 0.00 0.00 78 1014.4
20260507204507 51 179 0.0 1.0 0.00 0.00 0.00 78 1014.3
20260507203007 51 100 0.0 0.0 0.00 0.00 0.00 78 1014.3
20260507201513 51 192 0.0 0.0 0.00 0.00 0.00 78 1014.2
20260507200006 52 150 0.0 0.0 0.00 0.00 0.00 78 1014.2
20260507194505 52 189 0.0 0.0 0.00 0.00 0.00 78 1014.0
20260507193005 52 144 0.0 0.0 0.00 0.00 0.00 77 1014.0
20260507191505 52 194 0.0 0.0 0.00 0.00 0.00 77 1013.9
20260507190003 53 194 0.0 0.0 0.00 0.00 0.00 77 1013.8
20260507184600 53 133 0.0 0.0 0.00 0.00 0.00 76 1013.8
20260507183059 53 142 0.0 0.0 0.00 0.00 0.00 76 1013.9
20260507181558 54 128 0.0 0.0 0.00 0.00 0.00 76 1013.9
20260507180106 54 126 0.0 0.0 0.00 0.00 0.00 74 1013.8
20260507174630 54 141 0.0 1.0 0.00 0.00 0.00 74 1013.9
20260507173057 54 145 0.0 2.0 0.00 0.00 0.00 75 1013.8
20260507171609 54 135 0.0 0.0 0.00 0.00 0.00 75 1013.9
20260507170054 54 155 0.0 1.0 0.00 0.00 0.00 75 1014.1
20260507164555 54 124 0.0 1.0 0.00 0.00 0.00 75 1014.1
20260507163053 54 151 0.0 0.0 0.00 0.00 0.00 75 1014.2
20260507161553 53 155 0.0 0.0 0.00 0.00 0.00 76 1014.3
20260507160111 53 203 0.0 1.0 0.00 0.00 0.00 75 1014.3
20260507154549 53 139 0.0 1.0 0.00 0.00 0.00 75 1014.2
20260507153048 53 122 0.0 1.0 0.00 0.00 0.00 76 1014.4
20260507151553 53 166 0.0 1.0 0.00 0.00 0.00 74 1014.4
20260507150047 54 155 0.0 1.0 0.00 0.00 0.00 73 1014.5
20260507144546 54 132 0.0 0.0 0.00 0.00 0.00 73 1014.5
20260507143044 55 143 0.0 2.0 0.00 0.00 0.00 71 1014.5
20260507141543 55 169 0.0 1.0 0.00 0.00 0.00 71 1014.6
20260507140047 56 190 0.0 5.0 0.00 0.00 0.00 71 1014.6
20260507134543 56 157 0.0 4.0 0.00 0.00 0.00 73 1014.6
20260507133043 57 143 2.0 6.0 0.00 0.00 0.00 72 1014.4
20260507131608 56 136 0.0 6.0 0.00 0.00 0.00 71 1014.6
20260507130042 56 144 1.0 6.0 0.00 0.00 0.00 72 1014.6
20260507124549 56 141 0.0 6.0 0.00 0.00 0.00 70 1014.5
20260507123043 57 125 0.0 3.0 0.00 0.00 0.00 68 1014.5
20260507121538 57 203 0.0 6.0 0.00 0.00 0.00 69 1014.5
20260507120040 58 133 0.0 5.0 0.00 0.00 0.00 66 1014.6
20260507114534 58 143 3.0 10.0 0.00 0.00 0.00 66 1014.7
20260507113058 56 153 1.0 4.0 0.00 0.00 0.00 70 1014.8
20260507111527 55 153 0.0 5.0 0.00 0.00 0.00 72 1014.8
20260507110023 54 149 0.0 5.0 0.00 0.00 0.00 75 1014.9
20260507104520 52 141 1.0 6.0 0.00 0.00 0.00 78 1015.1
20260507103016 51 160 1.0 5.0 0.00 0.00 0.00 78 1015.2
20260507101523 51 184 2.0 6.0 0.00 0.00 0.00 77 1015.1
20260507100029 51 154 0.0 8.0 0.00 0.00 0.00 78 1015.2
20260507094513 51 156 0.0 6.0 0.00 0.00 0.00 77 1015.2
20260507093010 51 170 1.0 6.0 0.00 0.00 0.00 80 1015.3
20260507091508 50 194 0.0 4.0 0.00 0.00 0.00 81 1015.3
20260507090007 51 149 0.0 3.0 0.00 0.00 0.00 78 1015.3
20260507084507 50 149 0.0 0.0 0.00 0.00 0.00 82 1015.3
20260507083059 48 195 0.0 2.0 0.00 0.00 0.00 85 1015.4
20260507081554 46 186 0.0 4.0 0.00 0.00 0.00 87 1015.5